�N����,����,�~����,�C��,���x,�C��,����,���ϕ���,�ő�u�ԕ���,�ő厞����,���˗�,�I�_���x,�n�����x,�ő啗���N��,DTYPE
"18/03/15","00:10",0.0,8.3,83.0,1016.6,312.6,1.3,2.5,337.5,0.00,5.6,10.2,"00:00:02",1
"18/03/15","00:20",0.0,8.1,82.5,1016.4,319.5,1.5,2.1,334.3,0.00,5.3,10.2,"00:10:08",1
"18/03/15","00:30",0.0,8.1,84.5,1016.4,286.0,1.2,2.1,309.2,0.00,5.7,10.1,"00:27:36",1
"18/03/15","00:40",0.0,8.4,83.8,1016.1,315.6,1.7,2.9,321.5,0.00,5.9,9.9,"00:33:52",1
"18/03/15","00:50",0.0,7.9,82.9,1016.4,312.7,1.6,2.1,311.5,0.00,5.2,10.0,"00:42:56",1
"18/03/15","01:00",0.0,7.6,85.4,1016.1,300.3,1.3,2.0,311.7,0.00,5.4,10.0,"00:59:04",1
"18/03/15","01:10",0.0,7.6,85.4,1016.4,313.0,1.5,2.2,323.2,0.00,5.4,9.9,"01:02:00",1
"18/03/15","01:20",0.0,7.5,86.5,1015.9,297.2,1.6,2.5,320.5,0.00,5.4,9.8,"01:13:46",1
"18/03/15","01:30",0.0,7.5,87.5,1016.4,299.6,1.0,1.4,285.7,0.00,5.6,9.8,"01:27:20",1
"18/03/15","01:40",0.0,7.7,87.9,1016.6,305.2,1.6,2.2,323.0,0.00,5.9,9.9,"01:39:04",1
"18/03/15","01:50",0.0,7.6,88.0,1016.1,329.6,1.3,2.5,347.7,0.00,5.8,9.9,"01:41:52",1
"18/03/15","02:00",0.0,7.3,88.0,1016.1,305.0,1.5,2.5,320.3,0.00,5.5,9.6,"01:50:02",1
"18/03/15","02:10",0.0,7.2,89.5,1016.4,313.7,1.6,2.7,322.8,0.00,5.6,9.7,"02:00:08",1
"18/03/15","02:20",0.0,7.0,89.8,1015.9,299.6,1.7,2.9,323.4,0.00,5.5,9.5,"02:12:56",1
"18/03/15","02:30",0.0,7.1,91.3,1016.4,314.4,1.8,2.7,321.5,0.00,5.8,9.6,"02:21:04",1
"18/03/15","02:40",0.0,7.0,90.9,1016.4,297.7,1.2,1.9,323.9,0.00,5.7,9.4,"02:30:40",1
"18/03/15","02:50",0.0,6.7,90.5,1016.4,300.3,1.1,2.0,313.9,0.00,5.3,9.7,"02:42:34",1
"18/03/15","03:00",0.0,6.8,92.7,1016.1,302.0,1.3,2.2,325.2,0.00,5.7,9.4,"02:56:22",1
"18/03/15","03:10",0.0,6.7,92.6,1016.4,304.6,1.6,3.1,323.7,0.00,5.6,9.4,"03:05:50",1
"18/03/15","03:20",0.0,6.6,92.9,1016.1,298.9,1.6,2.6,320.2,0.00,5.6,9.3,"03:17:50",1
"18/03/15","03:30",0.0,6.7,93.3,1016.1,317.3,1.6,2.5,323.8,0.00,5.7,9.4,"03:21:46",1
"18/03/15","03:40",0.0,6.7,94.1,1015.9,300.0,1.7,3.6,321.7,0.00,5.9,9.2,"03:35:44",1
"18/03/15","03:50",0.0,6.7,93.8,1016.1,305.6,1.6,2.6,314.9,0.00,5.8,9.2,"03:48:58",1
"18/03/15","04:00",0.0,6.7,94.3,1016.4,297.7,1.3,2.1,308.5,0.00,5.9,9.2,"03:56:32",1
"18/03/15","04:10",0.0,6.8,95.6,1015.9,304.1,1.7,2.4,316.8,0.00,6.2,9.1,"04:03:12",1
"18/03/15","04:20",0.0,7.2,95.6,1016.4,310.3,1.3,2.1,317.1,0.00,6.6,9.2,"04:12:48",1
"18/03/15","04:30",0.0,7.5,95.7,1016.1,288.6,0.6,1.4,314.5,0.00,6.9,9.2,"04:20:32",1
"18/03/15","04:40",0.0,7.9,95.5,1016.4,303.5,1.0,1.6,318.0,0.00,7.3,9.1,"04:32:00",1
"18/03/15","04:50",0.0,8.0,95.2,1016.6,309.4,1.5,2.1,323.5,0.00,7.3,9.3,"04:47:36",1
"18/03/15","05:00",0.0,8.2,95.2,1016.4,317.6,1.2,1.8,269.0,0.00,7.5,9.3,"04:56:16",1
"18/03/15","05:10",0.0,8.3,95.4,1016.6,303.9,0.8,1.4,253.2,0.00,7.6,9.3,"05:01:36",1
"18/03/15","05:20",0.0,8.5,95.1,1016.4,328.2,1.5,2.2,318.8,0.00,7.8,9.5,"05:19:12",1
"18/03/15","05:30",0.0,8.5,95.0,1016.1,324.8,1.7,2.2,322.0,0.00,7.8,9.3,"05:23:52",1
"18/03/15","05:40",0.0,8.2,95.0,1016.1,298.1,1.3,1.7,315.8,0.00,7.5,9.3,"05:32:00",1
"18/03/15","05:50",0.0,8.2,95.3,1016.4,301.9,1.1,1.8,324.1,0.00,7.5,9.4,"05:43:36",1
"18/03/15","06:00",0.0,8.2,95.5,1016.4,319.2,1.6,2.1,323.0,0.00,7.6,9.2,"05:53:12",1
"18/03/15","06:10",0.0,8.3,95.2,1016.4,322.2,1.5,2.0,322.1,0.00,7.6,9.5,"06:00:24",1
"18/03/15","06:20",0.0,8.2,94.9,1016.1,315.3,1.5,1.8,324.0,0.00,7.5,9.2,"06:12:48",1
"18/03/15","06:30",0.0,8.0,95.0,1016.1,297.8,1.2,2.2,318.8,0.00,7.3,9.1,"06:29:12",1
"18/03/15","06:40",0.0,7.9,95.1,1016.1,297.3,1.0,2.0,319.8,0.00,7.2,9.2,"06:30:08",1
"18/03/15","06:50",0.0,8.0,95.8,1016.1,308.6,1.3,1.9,319.4,0.00,7.4,9.2,"06:40:02",1
"18/03/15","07:00",0.0,7.9,95.2,1016.1,318.3,1.3,1.9,326.3,0.00,7.2,9.2,"06:55:20",1
"18/03/15","07:10",0.0,8.1,96.3,1015.9,296.1,0.7,1.6,340.6,0.01,7.6,9.3,"07:09:44",1
"18/03/15","07:20",0.0,8.7,96.0,1016.1,306.2,1.5,2.2,319.3,0.03,8.1,9.2,"07:12:16",1
"18/03/15","07:30",0.0,9.9,95.3,1015.9,296.8,1.1,1.6,310.9,0.04,9.2,9.2,"07:27:04",1
"18/03/15","07:40",0.0,10.2,92.8,1016.4,313.4,1.2,1.8,320.1,0.06,9.1,9.6,"07:35:04",1
"18/03/15","07:50",0.0,11.2,91.2,1016.1,294.6,0.8,1.4,315.1,0.08,9.9,9.3,"07:41:20",1
"18/03/15","08:00",0.0,11.7,87.1,1016.6,304.6,0.3,0.9,275.6,0.11,9.7,9.6,"07:50:24",1
"18/03/15","08:10",0.0,12.4,86.0,1016.8,181.6,0.1,0.5,274.0,0.13,10.2,9.7,"08:03:28",1
"18/03/15","08:20",0.0,13.0,82.7,1017.1,22.8,0.3,0.8,107.1,0.14,10.2,9.7,"08:15:12",1
"18/03/15","08:30",0.0,13.6,80.1,1017.1,141.2,0.1,0.5,115.7,0.16,10.3,9.8,"08:20:08",1
"18/03/15","08:40",0.0,14.1,77.8,1016.8,306.8,0.3,1.0,328.3,0.20,10.3,10.1,"08:33:44",1
"18/03/15","08:50",0.0,15.0,74.1,1017.3,237.0,0.3,1.1,195.9,0.23,10.5,10.3,"08:49:12",1
"18/03/15","09:00",0.0,15.3,72.1,1016.6,198.6,0.3,1.0,147.1,0.25,10.3,10.5,"08:51:04",1
"18/03/15","09:10",0.0,15.9,69.1,1016.6,268.2,0.3,1.2,5.7,0.28,10.3,10.7,"09:09:28",1
"18/03/15","09:20",0.0,15.8,68.8,1016.4,253.3,0.7,1.3,237.9,0.30,10.1,10.8,"09:17:52",1
"18/03/15","09:30",0.0,16.4,65.9,1016.1,245.5,0.7,1.7,144.2,0.32,10.1,10.9,"09:26:56",1
"18/03/15","09:40",0.0,16.8,66.5,1016.4,178.7,0.7,1.8,135.7,0.34,10.6,11.3,"09:38:48",1
"18/03/15","09:50",0.0,17.0,67.2,1015.6,138.1,1.5,2.9,126.8,0.37,10.9,11.5,"09:45:04",1
"18/03/15","10:00",0.0,17.2,65.1,1015.6,151.9,1.5,3.4,126.0,0.39,10.6,11.6,"09:57:44",1
"18/03/15","10:10",0.0,17.2,66.7,1015.6,118.7,1.5,3.6,127.6,0.39,11.0,12.0,"10:04:56",1
"18/03/15","10:20",0.0,18.1,65.6,1015.4,168.3,1.7,4.7,142.3,0.41,11.6,12.3,"10:12:16",1
"18/03/15","10:30",0.0,18.1,63.2,1014.9,141.6,1.2,2.9,128.6,0.43,11.0,12.6,"10:23:04",1
"18/03/15","10:40",0.0,18.7,63.8,1014.9,126.5,1.5,3.2,113.0,0.45,11.8,12.6,"10:37:28",1
"18/03/15","10:50",0.0,19.0,63.2,1014.7,161.6,2.5,4.5,183.4,0.47,11.9,13.0,"10:48:40",1
"18/03/15","11:00",0.0,19.0,62.2,1014.2,170.6,2.3,4.4,190.2,0.41,11.7,13.1,"10:52:24",1
"18/03/15","11:10",0.0,19.3,61.7,1014.0,128.6,1.7,4.0,126.0,0.26,11.8,13.4,"11:00:48",1
"18/03/15","11:20",0.0,19.3,59.4,1013.5,151.2,2.8,4.9,115.0,0.25,11.2,13.5,"11:14:48",1
"18/03/15","11:30",0.0,20.2,55.8,1013.5,173.6,3.2,6.0,202.7,0.48,11.1,13.5,"11:22:00",1
"18/03/15","11:40",0.0,20.4,54.2,1013.5,194.3,2.8,6.0,126.2,0.50,10.9,13.9,"11:30:40",1
"18/03/15","11:50",0.0,20.8,53.1,1013.5,222.7,2.3,5.2,226.1,0.42,10.9,14.1,"11:43:52",1
"18/03/15","12:00",0.0,20.4,53.4,1013.5,229.9,2.2,6.0,193.2,0.29,10.7,14.1,"11:52:56",1
"18/03/15","12:10",0.0,21.3,52.1,1013.3,194.4,3.5,7.2,201.1,0.55,11.1,14.1,"12:07:44",1
"18/03/15","12:20",0.0,21.1,49.2,1013.3,229.6,3.2,8.3,229.4,0.35,10.1,14.4,"12:16:40",1
"18/03/15","12:30",0.0,20.8,50.5,1013.0,237.6,4.4,7.9,314.5,0.40,10.2,14.7,"12:28:40",1
"18/03/15","12:40",0.0,20.7,51.3,1012.6,236.8,3.9,8.5,209.4,0.42,10.3,14.6,"12:34:32",1
"18/03/15","12:50",0.0,21.1,50.3,1012.6,218.9,3.7,9.1,231.7,0.56,10.4,14.6,"12:44:08",1
"18/03/15","13:00",0.0,21.6,50.8,1012.3,202.4,3.0,7.4,219.7,0.41,11.0,14.9,"12:52:40",1
"18/03/15","13:10",0.0,21.3,49.9,1011.9,262.5,2.6,5.9,251.0,0.45,10.5,15.1,"13:00:02",1
"18/03/15","13:20",0.0,21.5,49.9,1011.9,210.6,3.2,7.3,228.9,0.42,10.7,15.0,"13:10:56",1
"18/03/15","13:30",0.0,21.2,50.1,1011.2,223.0,3.6,8.5,218.0,0.40,10.4,15.4,"13:26:48",1
"18/03/15","13:40",0.0,21.1,50.5,1010.9,228.1,3.7,10.8,207.9,0.40,10.5,15.1,"13:33:52",1
"18/03/15","13:50",0.0,20.7,52.3,1010.9,209.9,3.9,7.4,217.1,0.38,10.6,15.3,"13:45:36",1
"18/03/15","14:00",0.0,20.5,54.1,1010.7,240.0,2.7,7.7,213.7,0.25,11.0,15.6,"13:58:16",1
"18/03/15","14:10",0.0,21.0,54.1,1010.4,238.5,3.2,9.4,209.0,0.37,11.4,15.4,"14:05:52",1
"18/03/15","14:20",0.0,20.9,52.9,1010.4,236.2,3.4,7.3,225.4,0.43,11.0,15.5,"14:17:44",1
"18/03/15","14:30",0.0,21.4,53.5,1010.4,224.7,3.4,6.7,181.1,0.35,11.6,15.5,"14:25:36",1
"18/03/15","14:40",0.0,21.1,51.6,1010.4,222.3,3.9,8.5,228.5,0.35,10.8,15.7,"14:36:08",1
"18/03/15","14:50",0.0,20.8,50.5,1010.0,245.1,3.6,6.6,297.0,0.34,10.2,15.8,"14:43:04",1
"18/03/15","15:00",0.0,20.4,53.6,1010.2,209.8,4.4,9.0,216.0,0.19,10.7,15.7,"14:58:48",1
"18/03/15","15:10",0.0,20.4,52.5,1010.2,241.1,3.6,10.0,230.1,0.22,10.4,15.5,"15:07:04",1
"18/03/15","15:20",0.0,20.5,52.6,1010.2,241.1,3.6,6.8,194.8,0.19,10.5,15.4,"15:13:04",1
"18/03/15","15:30",0.0,20.6,52.3,1010.2,240.3,2.6,5.4,279.9,0.18,10.5,15.6,"15:24:40",1
"18/03/15","15:40",0.0,21.0,51.0,1010.4,259.7,2.8,5.1,231.8,0.20,10.5,15.5,"15:34:56",1
"18/03/15","15:50",0.0,21.1,51.6,1010.2,244.3,2.1,4.4,303.8,0.28,10.8,15.4,"15:45:28",1
"18/03/15","16:00",0.0,20.4,50.9,1010.4,266.1,2.6,5.9,234.2,0.13,9.9,15.6,"15:52:24",1
"18/03/15","16:10",0.0,20.5,47.3,1010.2,258.7,2.1,6.6,228.9,0.17,8.9,15.4,"16:06:20",1
"18/03/15","16:20",0.0,20.8,46.6,1010.0,253.0,2.0,3.6,252.6,0.13,9.0,15.6,"16:12:08",1
"18/03/15","16:30",0.0,20.3,49.1,1010.2,275.1,2.0,3.5,236.7,0.06,9.3,15.3,"16:21:44",1
"18/03/15","16:40",0.0,20.0,51.0,1010.2,274.3,2.1,3.7,303.7,0.05,9.6,15.1,"16:32:56",1
"18/03/15","16:50",0.0,19.7,52.7,1010.2,280.4,1.2,2.6,327.8,0.03,9.8,15.4,"16:49:04",1
"18/03/15","17:00",0.0,19.5,54.4,1010.2,266.8,1.7,3.6,281.6,0.03,10.1,15.2,"16:58:48",1
"18/03/15","17:10",0.0,19.3,55.5,1010.2,284.0,1.2,2.2,256.2,0.03,10.2,15.0,"17:03:12",1
"18/03/15","17:20",0.0,19.3,56.0,1010.0,274.1,1.6,3.5,321.4,0.02,10.4,14.8,"17:19:52",1
"18/03/15","17:30",0.0,18.9,58.2,1010.0,296.6,1.8,3.2,329.3,0.00,10.6,14.6,"17:25:36",1
"18/03/15","17:40",0.0,18.5,60.1,1010.2,274.1,2.0,4.3,304.6,0.00,10.7,14.7,"17:32:00",1
"18/03/15","17:50",0.0,18.2,61.2,1009.7,283.5,2.0,3.5,297.7,0.00,10.7,14.7,"17:45:36",1
"18/03/15","18:00",0.0,18.0,61.3,1010.0,286.4,2.2,5.7,315.2,0.00,10.5,14.7,"17:58:48",1
"18/03/15","18:10",0.0,17.9,61.0,1010.0,288.7,2.3,4.7,332.3,0.00,10.3,14.6,"18:09:28",1
"18/03/15","18:20",0.0,17.9,60.3,1010.2,284.7,2.6,4.9,316.8,0.00,10.1,14.2,"18:11:28",1
"18/03/15","18:30",0.0,17.9,58.9,1009.7,274.7,2.3,4.4,281.4,0.00,9.8,14.2,"18:23:52",1
"18/03/15","18:40",0.0,17.9,58.8,1010.2,282.0,2.3,4.4,309.7,0.00,9.8,14.2,"18:35:28",1
"18/03/15","18:50",0.0,17.7,59.0,1010.0,291.4,2.3,5.6,307.5,0.00,9.6,14.0,"18:41:04",1
"18/03/15","19:00",0.0,17.7,58.6,1009.7,276.9,2.6,5.4,289.8,0.00,9.5,14.0,"18:50:40",1
"18/03/15","19:10",0.0,17.6,60.0,1010.2,290.0,2.2,4.8,317.0,0.00,9.8,14.2,"19:03:20",1
"18/03/15","19:20",0.0,17.6,59.2,1010.2,287.8,2.5,5.4,309.1,0.00,9.6,13.8,"19:10:40",1
"18/03/15","19:30",0.0,17.6,58.5,1010.4,287.3,2.1,3.9,313.3,0.00,9.4,13.9,"19:28:24",1
"18/03/15","19:40",0.0,17.6,58.8,1010.4,280.3,1.6,3.9,316.4,0.00,9.5,13.8,"19:30:24",1
"18/03/15","19:50",0.0,17.6,58.5,1010.2,259.0,1.8,3.4,277.2,0.00,9.4,13.7,"19:42:00",1
"18/03/15","20:00",0.0,17.4,59.0,1010.4,262.8,1.2,3.3,228.7,0.00,9.4,13.6,"19:50:48",1
"18/03/15","20:10",0.0,17.5,59.8,1010.9,243.2,2.1,4.7,229.6,0.00,9.6,13.5,"20:05:12",1
"18/03/15","20:20",0.0,17.3,61.0,1010.9,286.7,2.0,4.0,212.7,0.00,9.8,13.4,"20:11:28",1
"18/03/15","20:30",0.0,17.2,62.2,1010.9,251.6,1.5,2.8,238.3,0.00,10.0,13.5,"20:20:16",1
"18/03/15","20:40",0.0,17.2,62.5,1010.7,255.3,1.5,3.5,199.1,0.00,10.0,13.5,"20:35:44",1
"18/03/15","20:50",0.0,17.0,63.5,1010.7,261.5,1.0,2.0,261.7,0.00,10.1,13.4,"20:43:20",1
"18/03/15","21:00",0.0,16.9,64.4,1010.4,222.3,1.5,3.3,220.1,0.00,10.2,13.4,"20:50:56",1
"18/03/15","21:10",0.0,16.9,64.1,1010.4,233.8,1.0,2.6,125.2,0.00,10.1,13.3,"21:04:32",1
"18/03/15","21:20",0.0,16.7,64.9,1010.7,294.9,1.0,1.8,333.0,0.00,10.1,13.2,"21:12:56",1
"18/03/15","21:30",0.0,16.5,65.4,1010.4,309.8,0.6,1.3,330.7,0.00,10.0,13.3,"21:22:40",1
"18/03/15","21:40",0.0,16.5,66.6,1010.9,313.6,1.2,3.2,231.7,0.00,10.3,13.2,"21:38:48",1
"18/03/15","21:50",0.0,16.3,67.1,1010.9,335.1,1.0,2.1,311.1,0.00,10.2,13.3,"21:40:08",1
"18/03/15","22:00",0.0,16.1,68.8,1010.7,344.8,0.6,1.3,341.6,0.00,10.4,13.2,"21:50:16",1
"18/03/15","22:10",0.0,16.5,68.1,1010.4,203.6,1.0,2.0,16.5,0.00,10.6,13.1,"22:02:32",1
"18/03/15","22:20",0.0,16.5,68.3,1010.2,176.7,0.6,1.4,140.0,0.00,10.7,13.2,"22:13:52",1
"18/03/15","22:30",0.0,16.0,69.8,1010.0,328.6,1.1,2.0,328.2,0.00,10.5,13.0,"22:25:12",1
"18/03/15","22:40",0.0,15.4,74.1,1010.0,314.2,1.5,2.2,339.0,0.00,10.9,13.0,"22:38:08",1
"18/03/15","22:50",0.0,14.9,78.7,1009.3,331.8,1.6,2.1,334.8,0.00,11.3,12.8,"22:47:12",1
"18/03/15","23:00",0.0,14.5,82.2,1009.7,326.3,1.6,2.4,316.6,0.00,11.5,12.7,"22:54:00",1
"18/03/15","23:10",0.0,14.3,84.3,1009.7,330.2,1.6,2.2,336.3,0.00,11.7,12.7,"23:01:44",1
"18/03/15","23:20",0.0,14.1,86.2,1009.7,293.8,1.1,1.9,335.6,0.00,11.9,12.8,"23:16:16",1
"18/03/15","23:30",0.0,14.1,87.0,1009.5,320.7,1.3,1.7,310.3,0.00,12.0,12.7,"23:20:40",1
"18/03/15","23:40",0.0,14.0,87.4,1009.3,305.0,1.2,2.0,315.8,0.00,12.0,12.8,"23:36:48",1
"18/03/15","23:50",0.0,14.0,88.0,1009.3,344.0,1.3,2.4,338.7,0.00,12.1,12.9,"23:48:48",1
"18/03/15","24:00",0.0,14.0,88.0,1009.3,329.1,1.8,2.6,335.9,0.00,12.1,12.7,"23:52:00",1
